Scott Air Force Base, IL

4:20 AM CDT on August 26, 2016 (GMT -0500)
Scott Air Force Base-Midamerica

Weather History for KBLV - February, 2012

Change the Weather History Date:

Monday, February 20, 2012

  Actual Average Record
Temperature  
Mean Temperature 36 °F -  
Max Temperature 50 °F 48 °F 76 °F (2016)
Min Temperature 22 °F 29 °F 6 °F (1963)
Degree Days  
Heating Degree Days 29    
Moisture  
Dew Point 25 °F    
Average Humidity 63    
Maximum Humidity 99    
Minimum Humidity 32    
Precipitation  
Precipitation 0.00 in - - ()
Sea Level Pressure  
Sea Level Pressure 30.12 in    
Wind  
Wind Speed 6 mph (SE)    
Max Wind Speed 21 mph    
Max Gust Speed 25 mph    
Visibility 10 miles    
Events      
Averages and records for this station are not official NWS values.
T = Trace of Precipitation, MM = Missing Value Source: NWS Daily Summary

Daily Weather History Graph

Daily Weather History Graph

Search for Another Location

Airport or City:

Trip Planner

Search our weather history database for the weather conditions in past years. The results will help you decide how hot, cold, wet, or windy it might be!

Date:

Astronomy

Feb. 20, 2012 Rise Set
Actual Time 6:44 AM CST 5:42 PM CST
Civil Twilight 6:17 AM CST 6:09 PM CST
Nautical Twilight 5:46 AM CST 6:40 PM CST
Astronomical Twilight 5:15 AM CST 7:10 PM CST
Moon 5:40 AM CST (2/20) 4:47 PM CST (2/20)
Length of Visible Light 11h 51m
Length of Day
10h 57m
Waning Crescent, 1% of the Moon is Illuminated
Feb 20
Waning Crescent
Feb 21
New
Feb 29
First Quarter
Mar 8
Full
Mar 14
Last Quarter

Hourly Weather History & Observations

Time (CST) Temp. Windchill Dew Point Humidity Pressure Visibility Wind Dir Wind Speed Gust Speed Precip Events Conditions
12:55 AM 27.7 °F - 23.4 °F 84% 30.19 in 10.0 mi Calm Calm - N/A   Clear
1:55 AM 25.9 °F - 23.0 °F 89% 30.24 in 10.0 mi Calm Calm - N/A   Clear
2:55 AM 24.6 °F - 22.6 °F 92% 30.25 in 10.0 mi Calm Calm - N/A   Clear
3:55 AM 23.0 °F - 22.3 °F 97% 30.27 in 10.0 mi Calm Calm - N/A   Clear
4:55 AM 22.5 °F - 21.9 °F 98% 30.26 in 10.0 mi Calm Calm - N/A   Clear
5:55 AM 24.3 °F 16.3 °F 23.9 °F 99% 30.24 in 10.0 mi East 6.9 mph - N/A   Clear
6:55 AM 26.4 °F 18.9 °F 23.9 °F 90% 30.24 in 10.0 mi East 6.9 mph - N/A   Clear
7:55 AM 28.6 °F - 26.4 °F 92% 30.27 in 10.0 mi Calm Calm - N/A   Clear
8:55 AM 32.9 °F 25.3 °F 27.3 °F 80% 30.27 in 10.0 mi SE 9.2 mph - N/A   Clear
9:55 AM 37.6 °F 30.0 °F 27.3 °F 66% 30.26 in 10.0 mi SE 11.5 mph - N/A   Clear
10:55 AM 41.4 °F 36.2 °F 28.0 °F 59% 30.25 in 10.0 mi SSE 8.1 mph - N/A   Clear
11:55 AM 43.7 °F 37.7 °F 27.1 °F 52% 30.22 in 10.0 mi SSE 11.5 mph - N/A   Clear
12:55 PM 45.9 °F 39.4 °F 27.0 °F 48% 30.18 in 10.0 mi SSE 15.0 mph - N/A   Clear
1:55 PM 48.0 °F - 24.4 °F 40% 30.13 in 10.0 mi SE 18.4 mph - N/A   Clear
2:55 PM 50.2 °F - 24.8 °F 37% 30.07 in 10.0 mi SE 18.4 mph - N/A   Clear
3:55 PM 50.9 °F - 22.1 °F 32% 30.04 in 10.0 mi SSE 20.7 mph 25.3 mph N/A   Clear
4:55 PM 48.9 °F - 20.7 °F 33% 30.03 in 10.0 mi SE 13.8 mph - N/A   Partly Cloudy
5:55 PM 45.5 °F 40.3 °F 23.2 °F 41% 30.02 in 10.0 mi SSE 10.4 mph - N/A   Partly Cloudy
6:55 PM 45.3 °F 39.7 °F 23.5 °F 42% 29.99 in 10.0 mi SSE 11.5 mph - N/A   Clear
7:55 PM 43.9 °F 37.9 °F 25.3 °F 48% 29.92 in 10.0 mi SE 11.5 mph - N/A   Clear
8:55 PM 43.7 °F 37.7 °F 26.1 °F 50% 29.94 in 10.0 mi SSE 11.5 mph - N/A   Partly Cloudy
9:55 PM 44.1 °F 38.6 °F 26.6 °F 50% 29.91 in 10.0 mi SSE 10.4 mph - N/A   Overcast
10:55 PM 43.5 °F 38.3 °F 27.5 °F 53% 29.87 in 10.0 mi SE 9.2 mph - N/A   Overcast
11:55 PM 44.6 °F 38.1 °F 26.6 °F 49% 29.83 in 10.0 mi SSE 13.8 mph - 0.00 in   Mostly Cloudy